When you browse on this site, cookies collect data to enhance your experience and personalize the content and advertising you see.
Visit our Privacy Policy to learn more. By continuing to use the site, you agree to this use of cookies and data.
  • en France
  • Liste des pays
  • À 7 jours
  • Température de l'eau
  • Carte météo
  • Widgets météo
  • user-avatar
    Se connecter

    Météo par heure à Abbévillers

    Ce jour, 21 Août, Mercredi

    Heure Température Précipitation Vent Pression Humidité
    00:00 +10°C° 0 mm 1 m/s 720 mmHg 93%
    01:00 +10°C° 0 mm 1 m/s 720 mmHg 94%
    02:00 +10°C° 0 mm 1 m/s 720 mmHg 95%
    03:00 +10°C° 0 mm 1 m/s 720 mmHg 96%
    04:00 +9°C° 0 mm 2 m/s 720 mmHg 96%
    05:00 +10°C° 0 mm 2 m/s 720 mmHg 96%
    06:00 +10°C° 0 mm 2 m/s 720 mmHg 96%
    07:00 +12°C° 0 mm 3 m/s 720 mmHg 88%
    08:00 +14°C° 0 mm 3 m/s 720 mmHg 79%
    09:00 +17°C° 0 mm 4 m/s 720 mmHg 71%
    10:00 +18°C° 0 mm 4 m/s 720 mmHg 67%
    11:00 +19°C° 0 mm 4 m/s 720 mmHg 63%
    12:00 +20°C° 0 mm 4 m/s 720 mmHg 59%
    13:00 +20°C° 0 mm 4 m/s 719 mmHg 60%
    14:00 +21°C° 0 mm 4 m/s 719 mmHg 60%
    15:00 +21°C° 0 mm 4 m/s 719 mmHg 61%
    16:00 +19°C° 0 mm 4 m/s 719 mmHg 67%
    17:00 +18°C° 0 mm 3 m/s 719 mmHg 72%
    18:00 +17°C° 0 mm 3 m/s 719 mmHg 78%
    19:00 +16°C° 0 mm 3 m/s 718 mmHg 81%
    20:00 +15°C° 0 mm 2 m/s 718 mmHg 85%
    21:00 +14°C° 0 mm 2 m/s 718 mmHg 88%
    22:00 +13°C° 0 mm 2 m/s 718 mmHg 90%
    23:00 +13°C° 0 mm 2 m/s 718 mmHg 92%

    Demain, 22 Août, Jeudi

    Heure Température Précipitation Vent Pression Humidité
    00:00 +12°C° 0 mm 2 m/s 718 mmHg 94%
    01:00 +12°C° 0 mm 1 m/s 718 mmHg 94%
    02:00 +11°C° 0 mm 1 m/s 718 mmHg 94%
    03:00 +11°C° 0 mm 1 m/s 717 mmHg 95%
    04:00 +12°C° 0 mm 1 m/s 718 mmHg 94%
    05:00 +12°C° 0 mm 1 m/s 718 mmHg 93%
    06:00 +13°C° 0 mm 1 m/s 718 mmHg 92%
    07:00 +15°C° 0 mm 2 m/s 718 mmHg 85%
    08:00 +17°C° 0 mm 2 m/s 719 mmHg 79%
    09:00 +19°C° 0 mm 2 m/s 719 mmHg 72%
    10:00 +20°C° 0 mm 3 m/s 719 mmHg 70%
    11:00 +21°C° 0 mm 3 m/s 719 mmHg 68%
    12:00 +22°C° 0 mm 3 m/s 719 mmHg 65%
    13:00 +22°C° 0 mm 3 m/s 719 mmHg 66%
    14:00 +24°C° 0 mm 3 m/s 719 mmHg 67%
    15:00 +24°C° 0 mm 2 m/s 718 mmHg 68%
    16:00 +21°C° 0 mm 2 m/s 718 mmHg 75%
    17:00 +20°C° 0 mm 2 m/s 718 mmHg 82%
    18:00 +19°C° 0 mm 2 m/s 718 mmHg 88%
    19:00 +18°C° 0 mm 2 m/s 718 mmHg 90%
    20:00 +18°C° 0 mm 1 m/s 718 mmHg 92%
    21:00 +16°C° 0 mm 1 m/s 718 mmHg 94%
    22:00 +15°C° 0 mm 1 m/s 718 mmHg 94%
    23:00 +15°C° 0 mm 1 m/s 718 mmHg 94%

    Après-demain, 23 Août, Vendredi

    Heure Température Précipitation Vent Pression Humidité
    00:00 +14°C° 0 mm 1 m/s 718 mmHg 95%
    01:00 +14°C° 0 mm 1 m/s 718 mmHg 95%
    02:00 +14°C° 0 mm 1 m/s 717 mmHg 95%
    03:00 +13°C° 0 mm 1 m/s 717 mmHg 96%
    04:00 +14°C° 0 mm 1 m/s 717 mmHg 96%
    05:00 +15°C° 0 mm 1 m/s 718 mmHg 96%
    06:00 +15°C° 0 mm 1 m/s 718 mmHg 95%
    07:00 +18°C° 0 mm 1 m/s 718 mmHg 89%
    08:00 +19°C° 0 mm 2 m/s 718 mmHg 83%
    09:00 +20°C° 0 mm 2 m/s 718 mmHg 76%
    10:00 +23°C° 0 mm 2 m/s 718 mmHg 73%
    11:00 +24°C° 0 mm 2 m/s 718 mmHg 69%
    12:00 +25°C° 0 mm 2 m/s 718 mmHg 65%
    13:00 +25°C° 0 mm 2 m/s 718 mmHg 66%
    14:00 +25°C° 0 mm 2 m/s 717 mmHg 67%
    15:00 +25°C° 0 mm 2 m/s 717 mmHg 68%
    16:00 +24°C° 0 mm 2 m/s 717 mmHg 75%
    17:00 +23°C° 0 mm 2 m/s 717 mmHg 82%
    18:00 +20°C° 0 mm 2 m/s 717 mmHg 89%
    19:00 +20°C° 0 mm 1 m/s 717 mmHg 90%
    20:00 +19°C° 0 mm 1 m/s 717 mmHg 92%
    21:00 +18°C° 0 mm 1 m/s 717 mmHg 93%
    22:00 +18°C° 0 mm 1 m/s 716 mmHg 93%
    23:00 +18°C° 0 mm 1 m/s 716 mmHg 94%

    24 Août, Samedi

    Heure Température Précipitation Vent Pression Humidité
    00:00 +16°C° 0 mm 1 m/s 716 mmHg 94%
    01:00 +16°C° 0 mm 1 m/s 716 mmHg 94%
    02:00 +16°C° 0 mm 1 m/s 716 mmHg 95%
    03:00 +15°C° 0 mm 1 m/s 716 mmHg 95%
    04:00 +16°C° 0 mm 1 m/s 716 mmHg 95%
    05:00 +16°C° 0 mm 1 m/s 716 mmHg 95%
    06:00 +18°C° 0 mm 1 m/s 716 mmHg 95%
    07:00 +20°C° 0 mm 1 m/s 716 mmHg 87%
    08:00 +22°C° 0 mm 1 m/s 716 mmHg 80%
    09:00 +24°C° 0 mm 1 m/s 717 mmHg 73%
    10:00 +25°C° 0 mm 1 m/s 716 mmHg 69%
    11:00 +26°C° 0 mm 1 m/s 716 mmHg 65%
    12:00 +27°C° 0 mm 2 m/s 716 mmHg 61%
    13:00 +27°C° 0 mm 1 m/s 716 mmHg 61%
    14:00 +27°C° 0 mm 1 m/s 715 mmHg 60%
    15:00 +27°C° 0 mm 1 m/s 715 mmHg 60%
    16:00 +25°C° 0 mm 1 m/s 715 mmHg 68%
    17:00 +24°C° 0 mm 1 m/s 715 mmHg 75%
    18:00 +22°C° 0 mm 1 m/s 715 mmHg 83%
    19:00 +21°C° 0 mm 1 m/s 715 mmHg 86%
    20:00 +20°C° 0 mm 1 m/s 715 mmHg 88%
    21:00 +19°C° 0 mm 1 m/s 715 mmHg 91%
    22:00 +19°C° 0 mm 1 m/s 715 mmHg 91%
    23:00 +18°C° 0 mm 1 m/s 715 mmHg 92%

    25 Août, Dimanche

    Heure Température Précipitation Vent Pression Humidité
    00:00 +18°C° 0 mm 1 m/s 714 mmHg 92%
    01:00 +18°C° 0 mm 1 m/s 714 mmHg 92%
    02:00 +18°C° 0 mm 1 m/s 714 mmHg 92%
    03:00 +16°C° 0 mm 1 m/s 714 mmHg 92%
    04:00 +18°C° 0 mm 1 m/s 714 mmHg 91%
    05:00 +18°C° 0 mm 1 m/s 714 mmHg 90%
    06:00 +19°C° 0 mm 1 m/s 714 mmHg 90%
    07:00 +21°C° 0 mm 1 m/s 715 mmHg 81%
    08:00 +23°C° 0 mm 1 m/s 715 mmHg 73%
    09:00 +25°C° 0 mm 1 m/s 715 mmHg 64%
    10:00 +26°C° 0 mm 1 m/s 715 mmHg 59%
    11:00 +28°C° 0 mm 1 m/s 715 mmHg 55%
    12:00 +29°C° 0 mm 1 m/s 715 mmHg 50%
    13:00 +29°C° 0 mm 1 m/s 715 mmHg 49%
    14:00 +28°C° 0 mm 1 m/s 715 mmHg 49%
    15:00 +28°C° 0 mm 1 m/s 715 mmHg 48%
    16:00 +26°C° 0 mm 1 m/s 714 mmHg 56%
    17:00 +24°C° 0 mm 1 m/s 714 mmHg 63%
    18:00 +20°C° 0 mm 0 m/s 714 mmHg 70%
    19:00 +19°C° 0 mm 0 m/s 714 mmHg 71%
    20:00 +20°C° 0 mm 1 m/s 715 mmHg 72%
    21:00 +19°C° 0 mm 1 m/s 715 mmHg 73%
    22:00 +19°C° 0 mm 1 m/s 715 mmHg 74%
    23:00 +19°C° 0 mm 1 m/s 715 mmHg 74%

    26 Août, Lundi

    Heure Température Précipitation Vent Pression Humidité
    00:00 +18°C° 0 mm 1 m/s 714 mmHg 75%
    01:00 +18°C° 0 mm 1 m/s 714 mmHg 75%
    02:00 +18°C° 0 mm 1 m/s 714 mmHg 76%
    03:00 +18°C° 0 mm 1 m/s 714 mmHg 76%
    04:00 +18°C° 0 mm 1 m/s 714 mmHg 76%
    05:00 +19°C° 0 mm 1 m/s 715 mmHg 75%
    06:00 +19°C° 0 mm 1 m/s 715 mmHg 75%
    07:00 +22°C° 0 mm 1 m/s 715 mmHg 68%
    08:00 +24°C° 0 mm 1 m/s 716 mmHg 61%
    09:00 +25°C° 0 mm 0 m/s 716 mmHg 55%
    10:00 +28°C° 0 mm 1 m/s 716 mmHg 52%
    11:00 +28°C° 0 mm 1 m/s 716 mmHg 50%
    12:00 +29°C° 0 mm 2 m/s 717 mmHg 48%
    13:00 +29°C° 0 mm 2 m/s 716 mmHg 51%
    14:00 +29°C° 0 mm 2 m/s 716 mmHg 54%
    15:00 +29°C° 0 mm 2 m/s 716 mmHg 56%
    16:00 +27°C° 0.1 mm 2 m/s 716 mmHg 62%
    17:00 +26°C° 0.1 mm 1 m/s 716 mmHg 68%
    18:00 +24°C° 0.1 mm 1 m/s 716 mmHg 74%
    19:00 +23°C° 0.1 mm 1 m/s 717 mmHg 76%
    20:00 +22°C° 0.1 mm 1 m/s 717 mmHg 78%
    21:00 +20°C° 0.1 mm 2 m/s 717 mmHg 81%
    22:00 +19°C° 0.2 mm 2 m/s 718 mmHg 84%
    23:00 +19°C° 0.2 mm 1 m/s 718 mmHg 88%
    Voir plus